Great Bend, KS

3:57 PM CST on December 12, 2017 (GMT -0600)
Great Bend Municipal

Weather History for KGBD - December, 2012

Change the Weather History Date:

Saturday, December 15, 2012

  Actual Average Record
Temperature  
Mean Temperature 42 °F -  
Max Temperature 55 °F 43 °F 69 °F (2002)
Min Temperature 28 °F 23 °F -14 °F (1989)
Degree Days  
Heating Degree Days 22    
Moisture  
Dew Point 36 °F    
Average Humidity 74    
Maximum Humidity 93    
Minimum Humidity 51    
Precipitation  
Precipitation 0.00 in - - ()
Sea Level Pressure  
Sea Level Pressure 29.62 in    
Wind  
Wind Speed 13 mph (West)    
Max Wind Speed 22 mph    
Max Gust Speed 26 mph    
Visibility 10 miles    
Events      
Averages and records for this station are not official NWS values.
T = Trace of Precipitation, MM = Missing Value Source: NWS Daily Summary

Daily Weather History Graph

Daily Weather History Graph

Search for Another Location

Airport or City:

Trip Planner

Search our weather history database for the weather conditions in past years. The results will help you decide how hot, cold, wet, or windy it might be!

Date:

Astronomy

Dec. 15, 2012 Rise Set
Actual Time 7:45 AM CST 5:16 PM CST
Civil Twilight 7:15 AM CST 5:45 PM CST
Nautical Twilight 6:42 AM CST 6:19 PM CST
Astronomical Twilight 6:10 AM CST 6:51 PM CST
Moon 9:40 AM CST (12/15) 8:20 PM CST (12/15)
Length of Visible Light 10h 29m
Length of Day
9h 30m
Waxing Crescent, 8% of the Moon is Illuminated
Dec 15
Waxing Crescent
Dec 19
First Quarter
Dec 28
Full
Jan 4
Last Quarter
Jan 11
New

Hourly Weather History & Observations

Time (CST) Temp. Windchill Dew Point Humidity Pressure Visibility Wind Dir Wind Speed Gust Speed Precip Events Conditions
12:15 AM 48.2 °F - 42.8 °F 82% 29.38 in 10.0 mi SSW 18.4 mph 25.3 mph N/A   Overcast
12:35 AM 46.4 °F 38.5 °F 41.0 °F 81% 29.37 in 10.0 mi South 21.9 mph 25.3 mph N/A   Partly Cloudy
12:55 AM 46.4 °F 39.5 °F 39.2 °F 76% 29.37 in 10.0 mi South 17.3 mph - N/A   Clear
1:35 AM 46.4 °F 40.1 °F 39.2 °F 76% 29.37 in 10.0 mi SSW 15.0 mph 20.7 mph N/A   Overcast
2:35 AM 44.6 °F 39.7 °F 39.2 °F 81% 29.38 in 10.0 mi SW 9.2 mph - N/A   Overcast
2:55 AM 44.6 °F 39.2 °F 41.0 °F 87% 29.40 in 10.0 mi WSW 10.4 mph - N/A   Overcast
3:15 AM 44.6 °F 39.2 °F 41.0 °F 87% 29.41 in 10.0 mi West 10.4 mph - N/A   Overcast
3:35 AM 44.6 °F 38.8 °F 41.0 °F 87% 29.42 in 10.0 mi West 11.5 mph - N/A   Mostly Cloudy
3:55 AM 44.6 °F 38.4 °F 41.0 °F 87% 29.44 in 10.0 mi West 12.7 mph - N/A   Clear
4:15 AM 44.6 °F 37.8 °F 41.0 °F 87% 29.47 in 10.0 mi West 15.0 mph - N/A   Scattered Clouds
4:35 AM 46.4 °F 39.2 °F 42.8 °F 87% 29.48 in 10.0 mi West 18.4 mph - N/A   Mostly Cloudy
4:55 AM 46.4 °F 39.8 °F 42.8 °F 87% 29.49 in 10.0 mi WNW 16.1 mph 24.2 mph N/A   Mostly Cloudy
5:15 AM 46.4 °F 39.8 °F 42.8 °F 87% 29.50 in 10.0 mi WNW 16.1 mph - N/A   Mostly Cloudy
5:35 AM 44.6 °F 36.6 °F 41.0 °F 87% 29.53 in 10.0 mi West 19.6 mph 25.3 mph N/A   Overcast
5:55 AM 44.6 °F 36.9 °F 39.2 °F 81% 29.55 in 10.0 mi West 18.4 mph 23.0 mph N/A   Overcast
6:15 AM 44.6 °F 37.2 °F 39.2 °F 81% 29.56 in 10.0 mi WNW 17.3 mph 24.2 mph N/A   Overcast
6:35 AM 44.6 °F 36.9 °F 39.2 °F 81% 29.57 in 10.0 mi WNW 18.4 mph 26.5 mph N/A   Overcast
6:55 AM 44.6 °F 37.2 °F 39.2 °F 81% 29.59 in 10.0 mi West 17.3 mph 21.9 mph N/A   Overcast
7:15 AM 41.0 °F 32.8 °F 35.6 °F 81% 29.61 in 10.0 mi West 16.1 mph 20.7 mph N/A   Scattered Clouds
7:35 AM 39.2 °F 31.6 °F 33.8 °F 81% 29.61 in 10.0 mi WNW 12.7 mph - N/A   Clear
7:55 AM 37.4 °F 31.4 °F 33.8 °F 87% 29.63 in 10.0 mi West 8.1 mph - N/A   Clear
8:15 AM 37.4 °F 30.8 °F 33.8 °F 87% 29.63 in 10.0 mi West 9.2 mph - N/A   Clear
8:55 AM 41.0 °F 33.1 °F 33.8 °F 76% 29.64 in 10.0 mi WNW 15.0 mph - N/A   Clear
9:15 AM 42.8 °F 35.1 °F 33.8 °F 70% 29.65 in 10.0 mi WNW 16.1 mph 20.7 mph N/A   Clear
9:35 AM 42.8 °F 35.4 °F 35.6 °F 76% 29.65 in 10.0 mi WNW 15.0 mph - N/A   Clear
10:15 AM 46.4 °F 40.4 °F 35.6 °F 66% 29.66 in 10.0 mi NW 13.8 mph 18.4 mph N/A   Clear
10:35 AM 46.4 °F 40.7 °F 35.6 °F 66% 29.66 in 10.0 mi NW 12.7 mph - N/A   Clear
10:55 AM 48.2 °F - 35.6 °F 62% 29.68 in 10.0 mi WNW 15.0 mph - N/A   Clear
11:15 AM 48.2 °F - 35.6 °F 62% 29.67 in 10.0 mi NW 13.8 mph 18.4 mph N/A   Clear
11:35 AM 48.2 °F - 37.4 °F 66% 29.68 in 10.0 mi NW 11.5 mph - N/A   Clear
11:55 AM 48.2 °F - 37.4 °F 66% 29.66 in 10.0 mi NW 10.4 mph - N/A   Clear
12:15 PM 50.0 °F - 37.4 °F 62% 29.67 in 10.0 mi WNW 11.5 mph - N/A   Clear
12:35 PM 51.8 °F - 37.4 °F 58% 29.66 in 10.0 mi WNW 10.4 mph - N/A   Clear
12:55 PM 51.8 °F - 37.4 °F 58% 29.65 in 10.0 mi WNW 10.4 mph - N/A   Clear
1:15 PM 51.8 °F - 37.4 °F 58% 29.65 in 10.0 mi West 10.4 mph - N/A   Clear
1:35 PM 53.6 °F - 37.4 °F 54% 29.65 in 10.0 mi West 8.1 mph - N/A   Clear
1:55 PM 53.6 °F - 37.4 °F 54% 29.66 in 10.0 mi West 9.2 mph - N/A   Clear
2:15 PM 53.6 °F - 37.4 °F 54% 29.67 in 10.0 mi West 12.7 mph - N/A   Clear
2:35 PM 55.4 °F - 37.4 °F 51% 29.68 in 10.0 mi West 13.8 mph - N/A   Clear
2:55 PM 55.4 °F - 37.4 °F 51% 29.68 in 10.0 mi West 11.5 mph - N/A   Clear
3:15 PM 55.4 °F - 37.4 °F 51% 29.67 in 10.0 mi West 10.4 mph - N/A   Clear
3:35 PM 53.6 °F - 37.4 °F 54% 29.68 in 10.0 mi West 9.2 mph - N/A   Clear
3:55 PM 53.6 °F - 35.6 °F 51% 29.68 in 10.0 mi West 9.2 mph - N/A   Clear
4:15 PM 53.6 °F - 37.4 °F 54% 29.67 in 10.0 mi West 8.1 mph - N/A   Clear
4:35 PM 53.6 °F - 37.4 °F 54% 29.68 in 10.0 mi WNW 9.2 mph - N/A   Clear
4:55 PM 50.0 °F - 37.4 °F 62% 29.69 in 10.0 mi West 8.1 mph - N/A   Clear
5:15 PM 46.4 °F 43.5 °F 35.6 °F 66% 29.69 in 10.0 mi West 5.8 mph - N/A   Clear
5:35 PM 44.6 °F 40.7 °F 35.6 °F 71% 29.69 in 10.0 mi West 6.9 mph - N/A   Clear
5:55 PM 44.6 °F 43.1 °F 35.6 °F 71% 29.69 in 10.0 mi SW 3.5 mph - N/A   Clear
6:15 PM 42.8 °F 40.1 °F 35.6 °F 76% 29.70 in 10.0 mi SSW 4.6 mph - N/A   Clear
6:35 PM 42.8 °F 41.1 °F 33.8 °F 70% 29.70 in 10.0 mi WSW 3.5 mph - N/A   Clear
6:55 PM 42.8 °F 41.1 °F 33.8 °F 70% 29.70 in 10.0 mi WSW 3.5 mph - N/A   Clear
7:15 PM 39.2 °F 35.9 °F 33.8 °F 81% 29.71 in 10.0 mi North 4.6 mph - N/A   Clear
7:35 PM 42.8 °F - 33.8 °F 70% 29.71 in 10.0 mi Calm Calm - N/A   Clear
7:55 PM 39.2 °F - 33.8 °F 81% 29.71 in 10.0 mi Calm Calm - N/A   Clear
8:15 PM 37.4 °F - 30.2 °F 75% 29.71 in 10.0 mi Calm Calm - N/A   Clear
8:35 PM 37.4 °F - 30.2 °F 75% 29.71 in 10.0 mi Calm Calm - N/A   Clear
8:55 PM 35.6 °F 32.8 °F 30.2 °F 81% 29.72 in 10.0 mi North 3.5 mph - N/A   Partly Cloudy
9:15 PM 33.8 °F 30.8 °F 28.4 °F 81% 29.72 in 10.0 mi North 3.5 mph - N/A   Clear
9:35 PM 32.0 °F - 26.6 °F 80% 29.72 in 10.0 mi Calm Calm - N/A   Clear
9:55 PM 32.0 °F - 26.6 °F 80% 29.72 in 10.0 mi Calm Calm - N/A   Clear
10:15 PM 30.2 °F - 26.6 °F 86% 29.71 in 10.0 mi Calm Calm - N/A   Clear
10:35 PM 30.2 °F 25.4 °F 28.4 °F 93% 29.70 in 10.0 mi NNW 4.6 mph - N/A   Clear
10:55 PM 30.2 °F 25.4 °F 24.8 °F 80% 29.70 in 10.0 mi NNW 4.6 mph - N/A   Clear
11:15 PM 30.2 °F - 26.6 °F 86% 29.71 in 10.0 mi Calm Calm - N/A   Clear
11:35 PM 30.2 °F 25.4 °F 28.4 °F 93% 29.72 in 10.0 mi West 4.6 mph - N/A   Clear
11:55 PM 28.4 °F 23.3 °F 24.8 °F 86% 29.72 in 10.0 mi NW 4.6 mph - N/A   Clear